| time (UTC) | temp C | wind direction | speed KPH | gust KPH | rain 1hr cm | rain 24hr cm | rain mn cm | humidity % | barometer mb |
| 20260507223800 | 7 | 316 | 1.6 | 12.9 | 0.00 | 0.00 | 0.00 | 57 | 1009.9 |
| 20260507223230 | 7 | 346 | 6.4 | 12.9 | 0.00 | 0.00 | 0.00 | 55 | 1009.9 |
| 20260507222726 | 7 | 302 | 3.2 | 12.9 | 0.00 | 0.00 | 0.00 | 55 | 1009.9 |
| 20260507222224 | 7 | 324 | 4.8 | 11.3 | 0.00 | 0.00 | 0.00 | 55 | 1009.9 |
| 20260507221701 | 7 | 314 | 3.2 | 6.4 | 0.00 | 0.00 | 0.00 | 57 | 1010.2 |
| 20260507221359 | 7 | 287 | 1.6 | 4.8 | 0.00 | 0.00 | 0.00 | 57 | 1010.2 |
| 20260507220624 | 7 | 306 | 1.6 | 4.8 | 0.00 | 0.00 | 0.00 | 59 | 1009.9 |
| 20260507220055 | 7 | 297 | 1.6 | 14.5 | 0.00 | 0.00 | 0.00 | 59 | 1009.9 |
| 20260507215747 | 7 | 245 | 3.2 | 14.5 | 0.00 | 0.00 | 0.00 | 57 | 1009.9 |
| 20260507214955 | 7 | 307 | 4.8 | 4.8 | 0.00 | 0.00 | 0.00 | 57 | 1009.9 |
| 20260507214435 | 7 | 333 | 3.2 | 4.8 | 0.00 | 0.00 | 0.00 | 55 | 1009.9 |
| 20260507213925 | 7 | 334 | 1.6 | 9.7 | 0.00 | 0.00 | 0.00 | 55 | 1009.9 |
| 20260507213424 | 7 | 320 | 3.2 | 11.3 | 0.00 | 0.00 | 0.00 | 55 | 1009.9 |
| 20260507212922 | 7 | 298 | 3.2 | 11.3 | 0.00 | 0.00 | 0.00 | 56 | 1009.9 |
| 20260507212415 | 7 | 339 | 3.2 | 11.3 | 0.00 | 0.00 | 0.00 | 56 | 1009.9 |
| 20260507211900 | 7 | 175 | 8.0 | 11.3 | 0.00 | 0.00 | 0.00 | 54 | 1009.9 |
| 20260507211354 | 7 | 270 | 3.2 | 11.3 | 0.00 | 0.00 | 0.00 | 55 | 1009.6 |
| 20260507210830 | 7 | 224 | 9.7 | 11.3 | 0.00 | 0.00 | 0.00 | 54 | 1009.6 |
| 20260507210331 | 7 | 219 | 1.6 | 9.7 | 0.00 | 0.00 | 0.00 | 55 | 1009.9 |
| 20260507205823 | 7 | 236 | 1.6 | 9.7 | 0.00 | 0.00 | 0.00 | 55 | 1009.9 |
| 20260507205312 | 8 | 180 | 4.8 | 11.3 | 0.00 | 0.00 | 0.00 | 53 | 1009.9 |
| 20260507204807 | 8 | 214 | 6.4 | 11.3 | 0.00 | 0.00 | 0.00 | 54 | 1009.9 |
| 20260507204255 | 8 | 203 | 4.8 | 11.3 | 0.00 | 0.00 | 0.00 | 53 | 1009.9 |
| 20260507203723 | 8 | 256 | 6.4 | 11.3 | 0.00 | 0.00 | 0.00 | 55 | 1009.9 |
| 20260507203203 | 7 | 339 | 4.8 | 6.4 | 0.00 | 0.00 | 0.00 | 56 | 1009.6 |
| 20260507202647 | 7 | 262 | 4.8 | 12.9 | 0.00 | 0.00 | 0.00 | 55 | 1010.2 |
| 20260507202130 | 7 | 266 | 6.4 | 12.9 | 0.00 | 0.00 | 0.00 | 55 | 1009.9 |
| 20260507201620 | 7 | 270 | 8.0 | 22.5 | 0.00 | 0.00 | 0.00 | 55 | 1010.2 |
| 20260507201118 | 7 | 341 | 3.2 | 22.5 | 0.00 | 0.00 | 0.00 | 57 | 1009.9 |
| 20260507200813 | 7 | 259 | 6.4 | 12.9 | 0.00 | 0.00 | 0.00 | 57 | 1009.9 |
| 20260507200049 | 7 | 357 | 8.0 | 12.9 | 0.00 | 0.00 | 0.00 | 57 | 1010.2 |
| 20260507195543 | 7 | 286 | 3.2 | 22.5 | 0.00 | 0.00 | 0.00 | 59 | 1010.2 |
| 20260507195029 | 7 | 222 | 3.2 | 22.5 | 0.00 | 0.00 | 0.00 | 58 | 1010.2 |
| 20260507194526 | 7 | 210 | 4.8 | 14.5 | 0.00 | 0.00 | 0.00 | 59 | 1010.2 |
| 20260507194024 | 7 | 179 | 4.8 | 16.1 | 0.00 | 0.00 | 0.00 | 59 | 1010.2 |
| 20260507193501 | 7 | 318 | 11.3 | 16.1 | 0.00 | 0.00 | 0.00 | 57 | 1010.2 |
| 20260507192953 | 7 | 338 | 6.4 | 9.7 | 0.00 | 0.00 | 0.00 | 61 | 1010.6 |
| 20260507192423 | 7 | 284 | 6.4 | 9.7 | 0.00 | 0.00 | 0.00 | 60 | 1010.2 |
| 20260507192124 | 7 | 224 | 1.6 | 9.7 | 0.00 | 0.00 | 0.00 | 60 | 1010.2 |
| 20260507191330 | 7 | 274 | 1.6 | 9.7 | 0.00 | 0.00 | 0.00 | 60 | 1010.6 |
| 20260507190801 | 7 | 217 | 8.0 | 11.3 | 0.00 | 0.00 | 0.00 | 59 | 1010.6 |
| 20260507190236 | 7 | 180 | 6.4 | 14.5 | 0.00 | 0.00 | 0.00 | 58 | 1010.2 |
| 20260507185726 | 7 | 302 | 3.2 | 14.5 | 0.00 | 0.00 | 0.00 | 59 | 1010.6 |
| 20260507185223 | 7 | 198 | 4.8 | 14.5 | 0.00 | 0.00 | 0.00 | 60 | 1010.6 |
| 20260507184948 | 7 | 240 | 3.2 | 14.5 | 0.00 | 0.00 | 0.00 | 60 | 1010.6 |
| 20260507184215 | 7 | 335 | 9.7 | 12.9 | 0.00 | 0.00 | 0.00 | 60 | 1011.0 |
| 20260507183700 | 7 | 281 | 3.2 | 16.1 | 0.00 | 0.00 | 0.00 | 59 | 1011.0 |
| 20260507183154 | 6 | 297 | 4.8 | 16.1 | 0.00 | 0.00 | 0.00 | 59 | 1011.0 |
| 20260507182630 | 7 | 10 | 11.3 | 16.1 | 0.00 | 0.00 | 0.00 | 59 | 1011.0 |
| 20260507182131 | 6 | 310 | 3.2 | 12.9 | 0.00 | 0.00 | 0.00 | 61 | 1011.0 |
| 20260507181623 | 6 | 294 | 6.4 | 12.9 | 0.00 | 0.00 | 0.00 | 62 | 1011.0 |
| 20260507181332 | 7 | 340 | 9.7 | 12.9 | 0.00 | 0.00 | 0.00 | 64 | 1011.0 |
| 20260507180548 | 6 | 326 | 4.8 | 6.4 | 0.00 | 0.00 | 0.00 | 66 | 1011.0 |
| 20260507180023 | 6 | 312 | 1.6 | 11.3 | 0.00 | 0.00 | 0.00 | 67 | 1011.0 |
| 20260507175504 | 6 | 289 | 3.2 | 11.3 | 0.00 | 0.00 | 0.00 | 65 | 1011.0 |
| 20260507175001 | 6 | 185 | 4.8 | 9.7 | 0.00 | 0.00 | 0.00 | 64 | 1011.0 |
| 20260507174435 | 6 | 221 | 4.8 | 12.9 | 0.00 | 0.00 | 0.00 | 69 | 1011.0 |
| 20260507173931 | 6 | 161 | 8.0 | 14.5 | 0.00 | 0.00 | 0.00 | 71 | 1011.3 |
| 20260507173906 | 6 | 306 | 6.4 | 20.9 | 0.00 | 0.00 | 0.00 | 69 | 1011.3 |
| 20260507172916 | 6 | 334 | 12.9 | 20.9 | 0.00 | 0.00 | 0.00 | 65 | 1011.3 |
| 20260507172614 | 6 | 341 | 6.4 | 16.1 | 0.00 | 0.00 | 0.00 | 61 | 1011.3 |
| 20260507171849 | 7 | 288 | 11.3 | 16.1 | 0.00 | 0.00 | 0.00 | 59 | 1011.3 |
| 20260507171344 | 7 | 271 | 4.8 | 14.5 | 0.00 | 0.00 | 0.00 | 59 | 1011.3 |
| 20260507170830 | 7 | 282 | 11.3 | 22.5 | 0.00 | 0.00 | 0.00 | 59 | 1011.3 |
| 20260507170331 | 7 | 336 | 6.4 | 17.7 | 0.00 | 0.00 | 0.00 | 60 | 1011.3 |
| 20260507165823 | 7 | 312 | 4.8 | 11.3 | 0.00 | 0.00 | 0.00 | 61 | 1011.3 |
| 20260507165301 | 7 | 346 | 6.4 | 12.9 | 0.00 | 0.00 | 0.00 | 59 | 1011.3 |
| 20260507164737 | 7 | 334 | 9.7 | 12.9 | 0.00 | 0.00 | 0.00 | 60 | 1011.3 |
| 20260507164442 | 7 | 297 | 1.6 | 9.7 | 0.00 | 0.00 | 0.00 | 63 | 1011.3 |
| 20260507163656 | 6 | 187 | 3.2 | 6.4 | 0.00 | 0.00 | 0.00 | 62 | 1012.0 |
| 20260507163342 | 6 | 249 | 4.8 | 12.9 | 0.00 | 0.00 | 0.00 | 63 | 1011.3 |
| 20260507162615 | 7 | 226 | 6.4 | 17.7 | 0.00 | 0.00 | 0.00 | 63 | 1011.3 |
| 20260507162105 | 7 | 337 | 12.9 | 17.7 | 0.00 | 0.00 | 0.00 | 62 | 1011.7 |
| 20260507161559 | 7 | 257 | 4.8 | 14.5 | 0.00 | 0.00 | 0.00 | 62 | 1011.7 |
| 20260507161054 | 6 | 343 | 11.3 | 14.5 | 0.00 | 0.00 | 0.00 | 63 | 1012.0 |
| 20260507160522 | 6 | 315 | 9.7 | 12.9 | 0.00 | 0.00 | 0.00 | 63 | 1012.0 |
| 20260507160015 | 6 | 284 | 6.4 | 14.5 | 0.00 | 0.00 | 0.00 | 63 | 1011.7 |
| 20260507155501 | 6 | 341 | 1.6 | 14.5 | 0.00 | 0.00 | 0.00 | 62 | 1011.7 |
| 20260507154954 | 7 | 324 | 4.8 | 14.5 | 0.00 | 0.00 | 0.00 | 63 | 1012.0 |
| 20260507154429 | 6 | 221 | 6.4 | 14.5 | 0.00 | 0.00 | 0.00 | 63 | 1012.0 |
| 20260507153931 | 6 | 324 | 11.3 | 12.9 | 0.00 | 0.00 | 0.00 | 64 | 1012.4 |
| 20260507153423 | 6 | 256 | 1.6 | 17.7 | 0.00 | 0.00 | 0.00 | 64 | 1012.0 |
| 20260507153133 | 6 | 319 | 8.0 | 17.7 | 0.00 | 0.00 | 0.00 | 64 | 1012.0 |
| 20260507152407 | 6 | 324 | 6.4 | 14.5 | 0.00 | 0.00 | 0.00 | 63 | 1012.0 |
| 20260507152113 | 6 | 265 | 6.4 | 12.9 | 0.00 | 0.00 | 0.00 | 64 | 1012.0 |
| 20260507151323 | 6 | 344 | 8.0 | 14.5 | 0.00 | 0.00 | 0.00 | 64 | 1012.0 |
| 20260507151255 | 6 | 317 | 9.7 | 14.5 | 0.00 | 0.00 | 0.00 | 64 | 1012.0 |
| 20260507150231 | 6 | 303 | 4.8 | 11.3 | 0.00 | 0.00 | 0.00 | 65 | 1012.0 |
| 20260507145730 | 6 | 273 | 3.2 | 11.3 | 0.00 | 0.00 | 0.00 | 66 | 1012.0 |
| 20260507145220 | 6 | 329 | 3.2 | 12.9 | 0.00 | 0.00 | 0.00 | 65 | 1012.0 |
| 20260507144937 | 5 | 317 | 6.4 | 14.5 | 0.00 | 0.00 | 0.00 | 66 | 1012.0 |
| 20260507144423 | 6 | 319 | 8.0 | 14.5 | 0.00 | 0.00 | 0.00 | 65 | 1012.0 |
| 20260507143629 | 5 | 341 | 6.4 | 14.5 | 0.00 | 0.00 | 0.00 | 66 | 1012.4 |
| 20260507143126 | 5 | 339 | 6.4 | 20.9 | 0.00 | 0.00 | 0.00 | 67 | 1012.4 |
| 20260507142608 | 5 | 327 | 4.8 | 20.9 | 0.00 | 0.00 | 0.00 | 66 | 1012.0 |
| 20260507142103 | 5 | 313 | 3.2 | 12.9 | 0.00 | 0.00 | 0.00 | 67 | 1012.0 |
| 20260507141530 | 5 | 343 | 6.4 | 12.9 | 0.00 | 0.00 | 0.00 | 68 | 1012.0 |
| 20260507141019 | 5 | 345 | 6.4 | 14.5 | 0.00 | 0.00 | 0.00 | 67 | 1012.0 |
| 20260507140726 | 5 | 300 | 9.7 | 14.5 | 0.00 | 0.00 | 0.00 | 68 | 1012.0 |
| 20260507135929 | 5 | 334 | 8.0 | 11.3 | 0.00 | 0.00 | 0.00 | 69 | 1012.0 |
| 20260507135422 | 5 | 323 | 4.8 | 12.9 | 0.00 | 0.00 | 0.00 | 69 | 1012.4 |
| 20260507134924 | 5 | 328 | 3.2 | 6.4 | 0.00 | 0.00 | 0.00 | 69 | 1012.4 |
| 20260507134402 | 5 | 229 | 1.6 | 4.8 | 0.00 | 0.00 | 0.00 | 70 | 1012.4 |
| 20260507133836 | 5 | 334 | 1.6 | 6.4 | 0.00 | 0.00 | 0.00 | 71 | 1012.0 |
| 20260507133327 | 5 | 257 | 1.6 | 11.3 | 0.00 | 0.00 | 0.00 | 72 | 1012.0 |
| 20260507132823 | 4 | 250 | 3.2 | 12.9 | 0.00 | 0.00 | 0.00 | 73 | 1012.0 |
| 20260507132321 | 4 | 344 | 4.8 | 12.9 | 0.00 | 0.00 | 0.00 | 73 | 1012.4 |
| 20260507131815 | 4 | 335 | 3.2 | 6.4 | 0.00 | 0.00 | 0.00 | 74 | 1012.0 |
| 20260507131300 | 4 | 224 | 4.8 | 6.4 | 0.00 | 0.00 | 0.00 | 75 | 1012.0 |
| 20260507130754 | 4 | 266 | 1.6 | 6.4 | 0.00 | 0.00 | 0.00 | 75 | 1012.0 |
| 20260507130230 | 4 | 325 | 3.2 | 6.4 | 0.00 | 0.00 | 0.00 | 75 | 1012.0 |
| 20260507125728 | 4 | 10 | 1.6 | 6.4 | 0.00 | 0.00 | 0.00 | 76 | 1012.0 |
| 20260507125223 | 4 | 202 | 3.2 | 6.4 | 0.00 | 0.00 | 0.00 | 75 | 1012.0 |
| 20260507124712 | 4 | 321 | 1.6 | 6.4 | 0.00 | 0.00 | 0.00 | 77 | 1012.0 |
| 20260507124207 | 4 | 230 | 4.8 | 6.4 | 0.00 | 0.00 | 0.00 | 76 | 1012.0 |
| 20260507123922 | 4 | 280 | 1.6 | 3.2 | 0.00 | 0.00 | 0.00 | 80 | 1012.0 |
| 20260507123123 | 3 | 203 | 1.6 | 3.2 | 0.00 | 0.00 | 0.00 | 80 | 1012.0 |
| 20260507122603 | 3 | 206 | 3.2 | 3.2 | 0.00 | 0.00 | 0.00 | 82 | 1012.0 |
| 20260507122035 | 3 | 249 | 0.0 | 1.6 | 0.00 | 0.00 | 0.00 | 81 | 1012.0 |
| 20260507121530 | 2 | 291 | 0.0 | 3.2 | 0.00 | 0.00 | 0.00 | 84 | 1012.0 |
| 20260507121020 | 2 | 265 | 3.2 | 3.2 | 0.00 | 0.00 | 0.00 | 85 | 1011.7 |
| 20260507120516 | 2 | 292 | 0.0 | 1.6 | 0.00 | 0.00 | 0.00 | 88 | 1012.0 |
| 20260507120215 | 2 | 292 | 0.0 | 0.0 | 0.00 | 0.00 | 0.00 | 89 | 1012.0 |
| 20260507115449 | 1 | 292 | 0.0 | 0.0 | 0.00 | 0.00 | 0.00 | 90 | 1012.0 |
| 20260507114942 | 0 | 292 | 0.0 | 0.0 | 0.00 | 0.00 | 0.00 | 95 | 1011.7 |
| 20260507114429 | 0 | 292 | 0.0 | 0.0 | 0.00 | 0.00 | 0.00 | 99 | 1012.0 |
| 20260507113925 | -1 | 292 | 0.0 | 0.0 | 0.00 | 0.00 | 0.00 | 99 | 1012.0 |
| 20260507113423 | -1 | 292 | 0.0 | 0.0 | 0.00 | 0.00 | 0.00 | 99 | 1012.0 |
| 20260507112855 | -2 | 292 | 0.0 | 0.0 | 0.00 | 0.00 | 0.00 | 99 | 1011.7 |
| 20260507112354 | -2 | 292 | 0.0 | 0.0 | 0.00 | 0.00 | 0.00 | 99 | 1012.0 |
| 20260507111823 | -2 | 292 | 0.0 | 0.0 | 0.00 | 0.00 | 0.00 | 99 | 1011.7 |
| 20260507111256 | -2 | 292 | 0.0 | 0.0 | 0.00 | 0.00 | 0.00 | 99 | 1011.7 |
| 20260507110723 | -3 | 292 | 0.0 | 0.0 | 0.00 | 0.00 | 0.00 | 99 | 1011.7 |
| 20260507110214 | -3 | 292 | 0.0 | 0.0 | 0.00 | 0.00 | 0.00 | 99 | 1011.7 |
| 20260507105704 | -3 | 292 | 0.0 | 0.0 | 0.00 | 0.00 | 0.00 | 99 | 1011.7 |
| 20260507105159 | -3 | 292 | 0.0 | 0.0 | 0.00 | 0.00 | 0.00 | 99 | 1011.7 |
| 20260507104915 | -3 | 292 | 0.0 | 0.0 | 0.00 | 0.00 | 0.00 | 99 | 1012.0 |
| 20260507104134 | -3 | 292 | 0.0 | 0.0 | 0.00 | 0.00 | 0.00 | 99 | 1011.7 |
| 20260507103630 | -4 | 292 | 0.0 | 0.0 | 0.00 | 0.00 | 0.00 | 99 | 1011.7 |
| 20260507103124 | -4 | 292 | 0.0 | 0.0 | 0.00 | 0.00 | 0.00 | 99 | 1011.7 |
| 20260507102555 | -4 | 292 | 0.0 | 0.0 | 0.00 | 0.00 | 0.00 | 99 | 1011.3 |
| 20260507102031 | -4 | 291 | 0.0 | 0.0 | 0.00 | 0.00 | 0.00 | 99 | 1011.3 |
| 20260507101755 | -4 | 289 | 0.0 | 0.0 | 0.00 | 0.00 | 0.00 | 99 | 1011.7 |
| 20260507101024 | -4 | 288 | 0.0 | 0.0 | 0.00 | 0.00 | 0.00 | 99 | 1011.7 |
| 20260507100452 | -4 | 288 | 0.0 | 0.0 | 0.00 | 0.00 | 0.00 | 99 | 1011.3 |
| 20260507095945 | -4 | 288 | 0.0 | 0.0 | 0.00 | 0.00 | 0.00 | 99 | 1011.3 |
| 20260507095422 | -4 | 288 | 0.0 | 0.0 | 0.00 | 0.00 | 0.00 | 99 | 1011.7 |
| 20260507094902 | -4 | 288 | 0.0 | 0.0 | 0.00 | 0.00 | 0.00 | 99 | 1011.3 |
| 20260507094402 | -4 | 288 | 0.0 | 0.0 | 0.00 | 0.00 | 0.00 | 99 | 1011.7 |
| 20260507093848 | -4 | 288 | 0.0 | 0.0 | 0.00 | 0.00 | 0.00 | 99 | 1011.7 |
| 20260507093549 | -3 | 288 | 0.0 | 0.0 | 0.00 | 0.00 | 0.00 | 99 | 1011.7 |
| 20260507093047 | -4 | 288 | 0.0 | 0.0 | 0.00 | 0.00 | 0.00 | 99 | 1011.7 |
| 20260507092315 | -4 | 288 | 0.0 | 0.0 | 0.00 | 0.00 | 0.00 | 99 | 1011.3 |
| 20260507091814 | -4 | 288 | 0.0 | 0.0 | 0.00 | 0.00 | 0.00 | 99 | 1011.7 |
| 20260507091301 | -3 | 288 | 0.0 | 0.0 | 0.00 | 0.00 | 0.00 | 99 | 1011.7 |
| 20260507090800 | -3 | 288 | 0.0 | 0.0 | 0.00 | 0.00 | 0.00 | 99 | 1011.7 |
| 20260507090229 | -3 | 288 | 0.0 | 0.0 | 0.00 | 0.00 | 0.00 | 99 | 1011.7 |
| 20260507085953 | -3 | 288 | 0.0 | 0.0 | 0.00 | 0.00 | 0.00 | 99 | 1011.7 |
| 20260507085224 | -3 | 288 | 0.0 | 0.0 | 0.00 | 0.00 | 0.00 | 99 | 1011.7 |
| 20260507084701 | -3 | 288 | 0.0 | 0.0 | 0.00 | 0.00 | 0.00 | 99 | 1011.7 |
| 20260507084135 | -3 | 288 | 0.0 | 0.0 | 0.00 | 0.00 | 0.00 | 99 | 1012.0 |
| 20260507083844 | -3 | 288 | 0.0 | 0.0 | 0.00 | 0.00 | 0.00 | 99 | 1011.7 |
| 20260507083055 | -3 | 288 | 0.0 | 0.0 | 0.00 | 0.00 | 0.00 | 99 | 1011.7 |
| 20260507082744 | -3 | 288 | 0.0 | 0.0 | 0.00 | 0.00 | 0.00 | 99 | 1012.0 |
| 20260507082001 | -3 | 288 | 0.0 | 0.0 | 0.00 | 0.00 | 0.00 | 99 | 1012.0 |
| 20260507081435 | -3 | 288 | 0.0 | 0.0 | 0.00 | 0.00 | 0.00 | 99 | 1011.7 |
| 20260507080925 | -3 | 288 | 0.0 | 0.0 | 0.00 | 0.00 | 0.00 | 99 | 1011.7 |
| 20260507080422 | -3 | 288 | 0.0 | 0.0 | 0.00 | 0.00 | 0.00 | 99 | 1011.7 |
| 20260507075921 | -3 | 288 | 0.0 | 0.0 | 0.00 | 0.00 | 0.00 | 99 | 1012.0 |
| 20260507075636 | -3 | 288 | 0.0 | 0.0 | 0.00 | 0.00 | 0.00 | 99 | 1012.0 |
| 20260507074900 | -3 | 288 | 0.0 | 0.0 | 0.00 | 0.00 | 0.00 | 99 | 1012.0 |
| 20260507074353 | -3 | 288 | 0.0 | 0.0 | 0.00 | 0.00 | 0.00 | 99 | 1012.0 |
| 20260507074050 | -3 | 288 | 0.0 | 0.0 | 0.00 | 0.00 | 0.00 | 99 | 1012.4 |
| 20260507073331 | -3 | 288 | 0.0 | 0.0 | 0.00 | 0.00 | 0.00 | 99 | 1012.0 |
| 20260507072822 | -3 | 288 | 0.0 | 0.0 | 0.00 | 0.00 | 0.00 | 99 | 1012.0 |
| 20260507072312 | -3 | 288 | 0.0 | 0.0 | 0.00 | 0.00 | 0.00 | 99 | 1012.0 |
| 20260507071807 | -3 | 288 | 0.0 | 0.0 | 0.00 | 0.00 | 0.00 | 99 | 1012.0 |
| 20260507071254 | -2 | 288 | 0.0 | 0.0 | 0.00 | 0.00 | 0.00 | 99 | 1012.0 |
| 20260507070723 | -2 | 288 | 0.0 | 0.0 | 0.00 | 0.00 | 0.00 | 99 | 1012.0 |
| 20260507070202 | -3 | 288 | 0.0 | 0.0 | 0.00 | 0.00 | 0.00 | 99 | 1012.4 |
| 20260507065646 | -2 | 288 | 0.0 | 0.0 | 0.00 | 0.00 | 0.00 | 99 | 1012.0 |
| 20260507065129 | -2 | 288 | 0.0 | 0.0 | 0.00 | 0.00 | 0.00 | 99 | 1012.4 |
| 20260507064620 | -3 | 288 | 0.0 | 0.0 | 0.00 | 0.00 | 0.00 | 99 | 1012.0 |
| 20260507064116 | -2 | 288 | 0.0 | 0.0 | 0.00 | 0.00 | 0.00 | 99 | 1012.4 |
| 20260507063555 | -2 | 288 | 0.0 | 0.0 | 0.00 | 0.00 | 0.00 | 99 | 1012.4 |
| 20260507063049 | -2 | 288 | 0.0 | 0.0 | 0.00 | 0.00 | 0.00 | 99 | 1012.4 |
| 20260507062542 | -2 | 288 | 0.0 | 0.0 | 0.00 | 0.00 | 0.00 | 99 | 1012.4 |
| 20260507062251 | -2 | 288 | 0.0 | 0.0 | 0.00 | 0.00 | 0.00 | 99 | 1012.7 |
| 20260507061529 | -2 | 288 | 0.0 | 0.0 | 0.00 | 0.00 | 0.00 | 99 | 1012.7 |
| 20260507061024 | -2 | 288 | 0.0 | 0.0 | 0.00 | 0.00 | 0.00 | 99 | 1012.7 |
| 20260507060521 | -2 | 288 | 0.0 | 0.0 | 0.00 | 0.00 | 0.00 | 99 | 1012.4 |
| 20260507060233 | -2 | 288 | 0.0 | 0.0 | 0.00 | 0.00 | 0.00 | 99 | 1012.7 |
| 20260507055500 | -2 | 288 | 0.0 | 0.0 | 0.00 | 0.00 | 0.00 | 99 | 1012.7 |
| 20260507054949 | -2 | 288 | 0.0 | 0.0 | 0.00 | 0.00 | 0.00 | 99 | 1012.7 |
| 20260507054421 | -2 | 288 | 0.0 | 0.0 | 0.00 | 0.00 | 0.00 | 99 | 1012.7 |
| 20260507053905 | -1 | 288 | 0.0 | 0.0 | 0.00 | 0.00 | 0.00 | 99 | 1012.7 |
| 20260507053359 | -1 | 288 | 0.0 | 0.0 | 0.00 | 0.00 | 0.00 | 99 | 1012.4 |
| 20260507052852 | -1 | 288 | 0.0 | 0.0 | 0.00 | 0.00 | 0.00 | 99 | 1012.7 |
| 20260507052329 | -1 | 288 | 0.0 | 0.0 | 0.00 | 0.00 | 0.00 | 99 | 1012.4 |
| 20260507051830 | -1 | 288 | 0.0 | 0.0 | 0.00 | 0.00 | 0.00 | 98 | 1013.0 |
| 20260507051323 | -1 | 288 | 0.0 | 0.0 | 0.00 | 0.00 | 0.00 | 97 | 1012.7 |
| 20260507050822 | -1 | 288 | 0.0 | 0.0 | 0.00 | 0.00 | 0.00 | 96 | 1012.7 |
| 20260507050258 | 0 | 288 | 0.0 | 0.0 | 0.00 | 0.00 | 0.00 | 96 | 1013.0 |
| 20260507045739 | 0 | 288 | 0.0 | 0.0 | 0.00 | 0.00 | 0.00 | 96 | 1012.7 |
| 20260507045231 | 0 | 288 | 0.0 | 0.0 | 0.00 | 0.00 | 0.00 | 95 | 1012.7 |
| 20260507044724 | 0 | 288 | 0.0 | 0.0 | 0.00 | 0.00 | 0.00 | 94 | 1012.7 |
| 20260507044158 | 0 | 288 | 0.0 | 0.0 | 0.00 | 0.00 | 0.00 | 95 | 1012.7 |
| 20260507043630 | 0 | 288 | 0.0 | 0.0 | 0.00 | 0.00 | 0.00 | 95 | 1013.0 |
| 20260507043115 | 0 | 288 | 0.0 | 0.0 | 0.00 | 0.00 | 0.00 | 95 | 1013.0 |
| 20260507042826 | 0 | 288 | 0.0 | 0.0 | 0.00 | 0.00 | 0.00 | 94 | 1013.0 |
| 20260507042057 | 0 | 288 | 0.0 | 0.0 | 0.00 | 0.00 | 0.00 | 94 | 1013.0 |
| 20260507041549 | 0 | 288 | 0.0 | 0.0 | 0.00 | 0.00 | 0.00 | 92 | 1013.0 |
| 20260507041042 | 0 | 288 | 0.0 | 0.0 | 0.00 | 0.00 | 0.00 | 92 | 1013.0 |
| 20260507040524 | 0 | 288 | 0.0 | 0.0 | 0.00 | 0.00 | 0.00 | 91 | 1013.0 |
| 20260507040002 | 0 | 288 | 0.0 | 0.0 | 0.00 | 0.00 | 0.00 | 90 | 1012.7 |
| 20260507035451 | 0 | 288 | 0.0 | 0.0 | 0.00 | 0.00 | 0.00 | 88 | 1013.0 |
| 20260507034929 | 0 | 288 | 0.0 | 0.0 | 0.00 | 0.00 | 0.00 | 86 | 1012.7 |
| 20260507034417 | 1 | 288 | 0.0 | 0.0 | 0.00 | 0.00 | 0.00 | 85 | 1013.0 |
| 20260507033902 | 1 | 288 | 0.0 | 0.0 | 0.00 | 0.00 | 0.00 | 84 | 1012.7 |
| 20260507033338 | 1 | 288 | 0.0 | 0.0 | 0.00 | 0.00 | 0.00 | 83 | 1013.0 |
| 20260507032830 | 2 | 288 | 0.0 | 0.0 | 0.00 | 0.00 | 0.00 | 78 | 1013.0 |
| 20260507032321 | 2 | 288 | 0.0 | 0.0 | 0.00 | 0.00 | 0.00 | 77 | 1013.0 |
| 20260507031818 | 2 | 287 | 0.0 | 0.0 | 0.00 | 0.00 | 0.00 | 76 | 1013.0 |
| 20260507031315 | 2 | 287 | 0.0 | 0.0 | 0.00 | 0.00 | 0.00 | 73 | 1013.0 |
| 20260507030809 | 2 | 288 | 0.0 | 0.0 | 0.00 | 0.00 | 0.00 | 73 | 1013.0 |
| 20260507030257 | 3 | 288 | 0.0 | 0.0 | 0.00 | 0.00 | 0.00 | 72 | 1013.0 |
| 20260507025738 | 3 | 288 | 0.0 | 3.2 | 0.00 | 0.00 | 0.00 | 70 | 1013.0 |
| 20260507025207 | 3 | 288 | 0.0 | 3.2 | 0.00 | 0.00 | 0.00 | 69 | 1013.0 |
| 20260507024900 | 3 | 289 | 0.0 | 1.6 | 0.00 | 0.00 | 0.00 | 69 | 1013.0 |
| 20260507024341 | 3 | 287 | 0.0 | 1.6 | 0.00 | 0.00 | 0.00 | 69 | 1013.0 |
| 20260507023557 | 3 | 287 | 0.0 | 1.6 | 0.00 | 0.00 | 0.00 | 70 | 1013.0 |
| 20260507023048 | 3 | 289 | 0.0 | 1.6 | 0.00 | 0.00 | 0.00 | 71 | 1013.0 |
| 20260507022522 | 3 | 289 | 0.0 | 1.6 | 0.00 | 0.00 | 0.00 | 71 | 1013.0 |
| 20260507022008 | 3 | 288 | 0.0 | 1.6 | 0.00 | 0.00 | 0.00 | 69 | 1013.0 |
| 20260507021501 | 3 | 290 | 0.0 | 1.6 | 0.00 | 0.00 | 0.00 | 69 | 1012.7 |
| 20260507021203 | 3 | 289 | 0.0 | 1.6 | 0.00 | 0.00 | 0.00 | 70 | 1012.7 |
| 20260507020419 | 3 | 293 | 1.6 | 1.6 | 0.00 | 0.00 | 0.00 | 70 | 1012.7 |
| 20260507015912 | 3 | 293 | 0.0 | 1.6 | 0.00 | 0.00 | 0.00 | 70 | 1012.7 |
| 20260507015357 | 3 | 292 | 0.0 | 1.6 | 0.00 | 0.00 | 0.00 | 68 | 1012.7 |
| 20260507014855 | 3 | 293 | 0.0 | 1.6 | 0.00 | 0.00 | 0.00 | 68 | 1013.0 |
| 20260507014343 | 3 | 308 | 0.0 | 0.0 | 0.00 | 0.00 | 0.00 | 67 | 1012.7 |
| 20260507013823 | 4 | 307 | 0.0 | 1.6 | 0.00 | 0.00 | 0.00 | 66 | 1012.7 |
| 20260507013304 | 4 | 294 | 0.0 | 1.6 | 0.00 | 0.00 | 0.00 | 66 | 1012.4 |
| 20260507012759 | 4 | 298 | 0.0 | 3.2 | 0.00 | 0.00 | 0.00 | 65 | 1012.7 |
| 20260507012232 | 4 | 265 | 1.6 | 3.2 | 0.00 | 0.00 | 0.00 | 64 | 1012.4 |
| 20260507011726 | 4 | 305 | 1.6 | 3.2 | 0.00 | 0.00 | 0.00 | 64 | 1012.4 |
| 20260507011415 | 4 | 317 | 0.0 | 3.2 | 0.00 | 0.00 | 0.00 | 65 | 1012.4 |
| 20260507010634 | 4 | 266 | 1.6 | 3.2 | 0.00 | 0.00 | 0.00 | 64 | 1012.4 |
| 20260507010124 | 4 | 289 | 1.6 | 3.2 | 0.00 | 0.00 | 0.00 | 64 | 1012.4 |
| 20260507005608 | 4 | 310 | 1.6 | 4.8 | 0.00 | 0.00 | 0.00 | 63 | 1012.4 |
| 20260507005332 | 4 | 257 | 3.2 | 6.4 | 0.00 | 0.00 | 0.00 | 63 | 1012.4 |
| 20260507004539 | 5 | 279 | 1.6 | 6.4 | 0.00 | 0.00 | 0.00 | 62 | 1012.4 |
| 20260507004022 | 5 | 321 | 1.6 | 4.8 | 0.00 | 0.00 | 0.00 | 63 | 1012.4 |
| 20260507003452 | 5 | 282 | 1.6 | 4.8 | 0.00 | 0.00 | 0.00 | 62 | 1012.4 |
| 20260507002924 | 5 | 312 | 1.6 | 4.8 | 0.00 | 0.00 | 0.00 | 61 | 1012.4 |
| 20260507002401 | 5 | 347 | 1.6 | 6.4 | 0.00 | 0.00 | 0.00 | 61 | 1012.4 |
| 20260507001850 | 5 | 312 | 3.2 | 9.7 | 0.00 | 0.00 | 0.00 | 61 | 1012.4 |
| 20260507001322 | 5 | 340 | 4.8 | 11.3 | 0.00 | 0.00 | 0.00 | 60 | 1012.4 |
| 20260507001043 | 5 | 306 | 3.2 | 11.3 | 0.00 | 0.00 | 0.00 | 61 | 1012.4 |
| 20260507000302 | 5 | 334 | 6.4 | 11.3 | 0.00 | 0.00 | 0.00 | 59 | 1012.4 |
| 20260507000222 | 5 | 260 | 3.2 | 9.7 | 0.00 | 0.00 | 0.00 | 59 | 1012.4 |
| 20260506235228 | 5 | 311 | 3.2 | 16.1 | 0.00 | 0.00 | 0.00 | 60 | 1012.0 |
| 20260506234721 | 5 | 324 | 3.2 | 16.1 | 0.00 | 0.00 | 0.00 | 59 | 1012.0 |
| 20260506234218 | 5 | 350 | 8.0 | 12.9 | 0.00 | 0.00 | 0.00 | 58 | 1012.0 |
| 20260506233941 | 5 | 319 | 3.2 | 11.3 | 0.00 | 0.00 | 0.00 | 57 | 1012.0 |
| 20260506233424 | 5 | 269 | 4.8 | 12.9 | 0.00 | 0.00 | 0.00 | 57 | 1012.0 |
| 20260506232658 | 5 | 343 | 9.7 | 12.9 | 0.00 | 0.00 | 0.00 | 56 | 1012.4 |
| 20260506232137 | 5 | 316 | 1.6 | 9.7 | 0.00 | 0.00 | 0.00 | 57 | 1012.4 |
| 20260506231623 | 6 | 314 | 4.8 | 14.5 | 0.00 | 0.00 | 0.00 | 56 | 1012.0 |
| 20260506231335 | 6 | 332 | 4.8 | 17.7 | 0.00 | 0.00 | 0.00 | 56 | 1012.0 |
| 20260506230601 | 6 | 357 | 8.0 | 17.7 | 0.00 | 0.00 | 0.00 | 55 | 1012.0 |
| 20260506230051 | 6 | 335 | 4.8 | 14.5 | 0.00 | 0.00 | 0.00 | 56 | 1012.0 |
| 20260506225529 | 6 | 356 | 12.9 | 22.5 | 0.00 | 0.00 | 0.00 | 54 | 1012.4 |
| 20260506225016 | 6 | 338 | 4.8 | 22.5 | 0.00 | 0.00 | 0.00 | 55 | 1012.4 |
| 20260506224456 | 6 | 278 | 4.8 | 17.7 | 0.00 | 0.00 | 0.00 | 54 | 1012.0 |